Tracking 29892 objects as of 21-Nov-2024
HD Live streaming from Space Station
objects crossing your sky now

COSMOS 1383

Track COSMOS 1383 now!
10-day predictions
COSMOS 1383 is classified as:


NORAD ID: 13301
Int'l Code: 1982-066A
Perigee: 990.2 km
Apogee: 1,031.6 km
Inclination: 82.9 °
Period: 105.2 minutes
Semi major axis: 7381 km
RCS: 2.8382 m2 (large)
Launch date: June 29, 1982
Source: Commonwealth of Independent States (former USSR) (CIS)
Launch site: PLESETSK MISSILE AND SPACE COMPLEX (PKMTR)
Your satellite tracking list
Your tracking list is empty




NASA's NSSDC Master Catalog

Two Line Element Set (TLE):
1 13301U 82066A   24326.10963146  .00000102  00000-0  10105-3 0  9990
2 13301  82.9320  74.7610 0028031  41.8082  78.9436 13.68837585117590
Source of the keplerian elements: AFSPC